Theta_e
354 358 365 365 365 366 366 364 362 361 361 361 362 361 361 361 361 361 362 363 362 361 359 359 358 359 359 359 360 360 359 359 359 361 360 360 363 363 364 362 360 357 364
355 357 366 366 366 367 366 366 363 363 361 361 362 363 363 361 361 361 362 362 361 360 359 359 358 358 357 356 357 358 357 358 358 359 362 360 364 365 363 361 359 358 363
354 358 362 366 367 366 367 368 365 364 362 362 363 363 363 362 361 361 362 360 360 359 360 361 359 358 360 358 356 357 357 357 360 361 362 364 356 365 364 361 360 360 361
355 356 358 366 367 365 366 367 367 365 365 365 364 364 363 362 362 361 360 361 361 359 359 359 359 359 358 358 358 357 356 357 359 361 355 356 360 363 362 361 361 361 361
355 356 361 367 366 365 364 366 365 364 364 365 364 363 363 362 363 362 360 360 358 359 359 358 357 356 355 356 356 356 357 358 360 357 355 355 357 363 364 361 362 362 363
352 355 363 367 365 364 363 363 363 363 363 363 363 363 362 362 361 360 360 361 360 358 355 355 353 353 352 352 352 353 356 356 359 358 353 355 351 363 361 361 362 360 362
350 358 360 367 366 364 363 362 362 362 361 361 361 361 360 361 360 360 360 361 360 358 357 357 356 355 355 356 357 357 356 355 354 354 353 357 358 361 361 362 362 360 361
350 355 358 365 366 364 363 363 363 362 363 363 361 361 360 361 361 361 360 360 359 358 357 357 358 359 359 360 360 361 361 361 355 352 353 355 357 358 357 361 362 362 362
351 351 355 358 363 363 364 363 364 364 365 364 363 362 363 363 362 360 359 358 357 358 360 361 362 363 363 363 363 363 364 365 359 355 352 353 359 359 357 358 360 363 361
349 351 352 355 357 356 358 364 366 363 364 363 363 362 364 362 361 360 360 359 360 361 362 363 365 365 367 367 366 366 366 365 362 357 356 355 364 360 358 359 360 361 362
347 352 352 353 355 355 354 358 363 364 362 362 361 362 362 355 355 356 360 362 364 364 365 365 365 369 369 368 367 367 365 361 358 359 357 363 365 361 360 361 363 364 362
344 348 350 350 351 351 351 360 359 359 359 360 361 362 356 353 356 359 364 365 363 364 366 366 368 367 366 360 361 365 360 358 359 359 360 366 366 365 363 365 366 367 366
345 347 350 350 351 350 352 359 355 355 355 356 360 359 355 354 358 358 358 361 363 365 369 363 364 361 363 362 359 362 358 361 360 356 360 367 367 366 364 366 367 368 367
343 346 349 350 354 352 351 352 352 351 351 351 353 358 358 356 359 362 362 362 366 364 363 367 363 363 363 367 363 364 361 358 356 355 361 369 368 367 367 367 368 368 368
343 346 348 351 358 356 356 353 353 350 349 350 352 357 355 355 357 359 360 359 359 367 365 365 365 361 366 362 365 363 360 360 358 358 361 371 369 367 368 368 368 369 368
344 346 348 351 357 359 360 362 357 355 354 352 351 351 358 356 357 357 357 356 357 362 362 363 362 360 361 360 359 361 361 359 360 361 359 365 370 368 368 368 369 370 368
345 346 348 352 356 360 361 361 360 357 354 352 351 356 357 358 361 363 356 355 357 365 366 364 366 366 362 360 359 361 361 360 360 363 362 362 365 369 369 370 370 370 368
346 348 350 349 353 359 360 360 357 356 354 351 350 353 359 360 363 363 357 357 363 368 363 361 361 367 361 360 360 361 362 363 363 361 362 361 365 364 369 370 370 369 369
348 352 352 353 352 355 361 359 358 361 354 351 352 353 362 360 361 362 358 358 362 360 363 361 360 364 360 359 356 358 358 359 361 358 361 362 363 362 364 366 369 367 367
349 353 356 355 359 359 359 359 355 353 352 352 353 354 358 360 362 362 360 360 362 359 359 357 363 363 358 355 355 355 362 357 361 361 361 361 363 365 362 365 363 361 366
349 352 359 357 368 361 356 356 354 350 350 351 352 358 361 361 360 363 358 358 361 360 365 366 360 362 355 359 357 354 352 355 357 359 360 358 362 363 365 364 363 361 359
347 353 360 362 367 364 360 359 357 355 354 354 354 358 360 360 361 361 365 361 360 355 369 367 365 357 353 360 351 352 346 343 354 352 357 357 359 359 360 362 364 369 363
348 352 359 365 368 368 369 361 360 360 357 354 355 355 358 361 362 365 370 366 369 364 353 368 364 363 350 354 362 350 341 343 350 347 356 355 358 356 358 360 365 369 372
349 352 359 365 367 370 374 364 368 356 352 353 356 357 359 367 366 365 368 371 370 360 363 365 366 365 363 353 353 355 356 356 341 338 349 356 358 357 361 358 360 362 369
352 351 354 364 368 371 372 370 362 362 356 356 355 365 370 370 369 364 368 372 370 364 366 369 372 372 362 362 354 351 359 353 360 349 339 348 358 355 356 357 358 357 365
354 353 354 363 370 373 374 372 371 366 365 356 358 355 355 357 359 369 366 371 371 368 367 365 375 371 368 364 359 358 352 352 347 356 346 348 345 350 355 355 354 355 357
Wind_Speed
17 17 13 13 14 16 16 16 15 15 15 14 13 13 13 12 12 11 10 10 8 8 7 7 6 5 4 3 3 3 3 3 2 3 3 4 4 5 5 5 5 7 10
22 19 14 13 14 16 15 15 15 15 15 14 12 11 10 10 10 10 9 8 7 6 5 5 5 4 3 3 2 1 1 2 2 3 4 6 7 7 6 4 2 11 10
23 20 17 14 14 16 15 14 14 14 14 14 12 11 10 10 9 8 7 6 5 4 4 4 3 3 2 2 2 2 2 2 4 5 8 10 9 13 6 2 4 8 9
22 20 19 14 14 15 15 14 14 14 13 13 12 10 10 9 8 7 6 5 4 3 2 3 2 2 1 1 0 1 1 3 3 6 10 9 11 13 8 4 4 5 7
22 20 21 16 15 15 14 14 13 13 12 12 11 9 9 7 7 6 5 3 2 2 2 1 1 1 2 2 2 3 3 3 5 9 6 5 1 11 11 6 8 8 8
21 21 22 17 16 15 14 13 12 12 11 10 10 9 8 7 5 4 4 4 3 2 2 3 4 5 6 6 5 5 5 6 9 11 5 6 6 11 8 5 7 5 7
20 23 21 17 16 15 14 13 12 11 10 10 9 9 7 7 6 5 4 4 4 4 5 6 8 9 9 8 8 8 8 8 10 13 5 7 7 10 9 7 8 7 8
18 20 20 17 15 15 14 13 11 10 11 12 11 10 9 8 7 6 5 6 7 8 9 10 10 11 10 10 10 10 10 11 11 10 8 4 13 12 8 8 7 8 9
18 18 17 17 16 15 14 13 12 11 10 9 9 8 9 9 6 6 8 9 11 11 11 11 12 12 12 12 12 12 12 12 11 10 9 7 15 14 11 9 9 10 9
16 19 17 16 16 14 14 13 13 11 9 9 9 9 7 7 9 11 10 14 14 13 14 13 14 14 14 14 14 14 12 11 13 12 6 4 12 12 11 11 12 12 11
14 18 16 16 15 14 13 13 11 12 11 11 11 10 9 9 13 13 15 6 15 16 17 16 15 13 12 14 16 15 12 9 9 7 3 15 16 12 11 13 13 13 15
17 17 17 16 16 15 11 14 12 12 11 11 10 10 9 10 7 6 2 10 12 18 14 16 15 12 11 10 9 14 8 11 10 10 9 17 13 12 12 13 13 13 14
16 14 16 15 14 15 10 11 8 8 8 8 10 8 9 6 5 6 6 7 8 16 8 10 14 7 8 6 6 10 10 10 10 7 11 18 14 13 14 13 13 13 14
17 17 16 15 12 13 8 8 8 7 7 6 9 9 7 5 6 6 3 4 5 5 5 1 1 2 5 6 5 6 8 7 6 4 10 18 15 14 14 15 14 14 14
17 16 15 14 12 9 8 8 7 6 6 8 6 10 8 8 7 6 5 6 7 0 6 3 5 5 7 8 5 7 9 5 10 4 6 18 17 16 15 14 14 14 13
17 16 15 15 13 11 9 7 7 6 6 7 6 7 10 7 6 6 6 8 8 5 4 5 4 6 4 5 13 8 6 9 6 8 3 8 17 17 16 14 13 14 13
16 15 15 14 16 13 11 10 8 7 8 7 7 6 8 9 8 7 7 8 7 2 5 5 6 5 9 6 6 15 4 7 7 6 7 6 9 18 17 16 13 12 12
16 16 15 14 16 16 13 10 9 9 8 7 7 7 10 9 8 6 7 8 3 1 3 6 5 2 6 3 7 1 4 4 7 8 7 10 7 9 14 17 14 13 13
16 17 15 15 15 16 13 10 10 10 8 8 7 7 9 10 11 9 9 5 5 5 2 6 3 4 3 8 7 4 9 6 7 7 9 7 10 8 6 12 17 14 14
18 16 16 13 13 12 10 10 9 9 9 9 8 8 9 9 10 9 9 9 6 6 4 7 6 5 6 8 8 8 5 8 4 4 5 7 9 10 10 9 9 10 13
19 19 17 16 13 10 10 10 10 9 9 9 9 11 10 10 10 10 9 9 9 9 4 4 6 5 6 6 2 8 9 5 12 9 6 8 6 6 5 4 8 8 11
21 19 17 17 15 13 10 9 9 9 9 9 9 10 12 12 12 11 10 9 9 8 5 5 6 6 8 1 5 5 8 6 4 11 4 4 5 6 6 7 6 5 8
21 21 19 17 16 15 14 11 9 8 8 8 9 9 11 13 13 12 10 9 8 6 9 5 6 6 7 6 2 4 6 6 2 4 14 6 6 6 7 7 7 6 8
21 20 19 19 19 17 15 13 13 11 11 11 10 10 10 12 13 14 12 10 9 9 9 7 9 7 9 6 5 7 4 10 6 5 3 10 4 6 8 7 9 11 10
20 20 20 19 18 16 17 16 13 14 12 11 11 12 11 9 12 14 13 12 11 10 10 10 8 7 6 6 6 8 8 4 5 6 9 4 4 4 7 10 10 9 13
20 20 19 18 16 16 15 18 17 17 15 12 12 11 11 11 12 14 14 11 11 10 10 10 9 8 8 7 7 7 6 5 7 6 8 9 8 4 11 9 10 8 9
Wind_Direction
139 136 141 131 132 134 139 141 141 138 134 129 126 121 117 119 120 120 118 114 114 107 102 100 97 95 89 81 78 70 62 68 92 117 124 131 126 134 145 171 191 158 112
137 141 142 134 131 131 137 140 142 143 141 139 138 134 130 130 131 132 130 128 123 120 113 109 108 100 106 114 116 126 150 170 182 195 197 185 153 146 166 193 353 119 123
135 137 148 139 133 130 133 138 142 147 148 149 150 146 141 141 141 141 139 137 127 127 125 121 110 102 94 100 116 160 183 213 232 232 235 230 170 141 159 182 97 125 136
136 147 142 141 138 136 136 139 143 146 148 150 149 147 147 147 147 149 152 147 144 140 137 150 152 141 126 95 209 231 216 238 241 242 250 241 177 139 143 168 149 153 156
140 158 129 148 145 144 145 142 145 149 151 151 152 152 152 153 156 157 164 168 169 171 178 195 231 239 242 249 258 271 281 302 247 245 254 281 87 140 146 167 179 186 191
150 144 138 150 151 151 150 150 152 157 161 161 161 161 161 162 170 183 186 189 179 215 237 250 256 257 253 251 252 257 266 272 276 247 198 151 266 137 147 177 222 195 185
161 123 145 153 156 158 157 157 160 166 172 174 174 174 176 184 188 198 212 211 224 235 247 254 259 261 260 256 252 247 246 253 266 283 216 161 140 138 153 176 194 182 185
146 139 143 153 156 162 165 166 169 178 187 187 183 181 187 197 206 209 218 238 244 247 250 253 256 258 258 256 252 246 240 242 249 240 269 232 130 146 177 192 195 194 195
136 150 154 163 164 169 171 175 176 187 193 179 187 187 192 195 200 224 238 244 248 249 251 254 255 255 253 249 248 248 245 236 260 272 221 237 149 154 179 202 208 207 197
152 147 158 161 168 176 170 183 186 185 191 192 194 198 198 202 222 227 239 239 245 248 249 249 251 251 246 245 244 242 247 247 248 246 257 162 149 166 186 209 217 211 208
173 147 162 161 170 180 174 169 189 190 194 199 205 210 214 236 206 223 215 208 216 240 243 241 236 241 241 239 234 231 232 239 234 256 233 141 157 173 200 216 227 223 213
174 163 163 170 172 177 186 151 196 184 197 199 200 192 218 236 247 321 97 195 220 236 250 258 242 217 230 246 207 217 223 229 224 222 236 148 162 179 209 220 228 229 218
177 172 166 178 173 176 201 159 192 190 197 193 213 216 228 249 210 222 224 220 233 231 226 223 231 214 245 255 186 205 221 203 233 225 130 150 166 188 211 220 233 235 227
180 178 174 180 172 191 194 188 193 202 188 202 188 204 252 214 242 263 248 211 226 281 207 12 235 305 251 253 273 249 241 253 233 242 142 156 170 191 213 220 225 229 230
179 184 188 173 169 212 189 190 223 208 194 207 205 183 225 227 234 234 252 271 288 90 279 259 301 259 180 253 233 240 258 247 276 260 141 164 175 189 210 225 226 225 225
176 184 187 173 172 207 197 229 213 219 211 225 216 205 194 242 241 246 226 245 246 210 261 213 172 193 300 110 261 210 232 268 234 285 247 179 178 190 202 219 228 225 218
173 188 191 186 178 194 207 202 224 232 217 216 220 234 195 210 230 277 272 271 259 359 297 252 280 284 309 241 25 285 213 243 270 220 277 189 170 206 199 197 216 206 197
183 189 195 190 184 186 199 204 222 222 240 219 224 216 194 215 243 235 248 249 259 271 296 308 250 247 233 313 295 195 237 244 248 256 260 273 189 187 198 197 193 192 188
195 180 197 191 199 188 199 210 217 231 224 244 234 223 190 210 218 225 250 246 243 270 209 249 251 234 308 295 288 288 304 244 238 246 239 255 272 286 218 182 163 179 193
186 189 194 196 202 197 189 211 221 224 226 224 236 238 221 219 223 225 241 260 271 257 214 33 275 318 312 281 287 291 256 262 219 216 234 235 228 235 255 172 169 184 197
191 193 189 197 186 196 201 197 214 221 217 223 227 228 235 235 239 222 243 250 227 249 248 254 300 219 261 288 349 283 323 257 242 194 201 222 240 189 229 194 191 195 184
192 191 192 197 193 197 202 214 215 216 223 220 225 225 214 232 236 241 239 256 263 283 155 223 242 295 296 25 256 333 294 299 315 349 219 214 265 267 185 231 234 212 189
197 193 192 195 190 198 217 203 215 243 246 239 229 233 220 222 232 235 251 247 260 260 274 168 214 241 272 306 305 285 294 296 37 180 244 201 180 236 247 198 212 212 228
201 194 197 191 202 192 195 223 206 218 222 227 234 236 228 212 218 227 232 229 239 253 255 261 190 225 216 261 266 223 262 315 323 302 125 237 169 230 229 253 204 212 212
202 201 196 194 200 204 192 211 214 216 231 232 240 243 221 235 213 228 222 219 221 231 240 253 276 229 242 244 267 278 209 317 278 289 312 346 233 219 212 207 245 229 197
205 202 197 192 201 197 201 203 222 221 215 234 229 239 242 232 217 209 227 225 224 230 234 240 226 240 257 254 273 306 272 239 253 214 225 251 277 250 208 214 204 221 238